Location: *
(28.3744°N, 81.5492°W)
Time: 03:49:16
(UTC+00:00)

Cosmos 2082 - Pass Details

Date: 15 June 2025
Orbit: 831 x 855 km, 71.0° (Epoch: 11 July)

Event Time Altitude Azimuth Distance (km) Brightness Sun altitude
Exits shadow 03:18:27 63° 23° (NNE) 943 3.9 -29.8°
Drops below altitude 10° 03:23:12 10° 20° (NNE) 2,483 6.5 -30.4°
Sets 03:25:40 0° 20° (NNE) 3,423 7.3 -30.6°
